Погода в Воронцове

Россия / Красноярский край     71°41′50″N   83°33′23″E
темп.,
°C
ветер,
м/с
пор.,
м/с
влажн.,
%
обл.,
%
осадки,
мм/ч
давл.,
гПа
погр.,
м
15 мая, сб
сб1501:00−12ссз46928 0.1 101146
04:00−14сз359468 0.0 101251
07:00−10сз489760 0.0 1012118
10:00−7зсз589178 0.0 1013433
13:00−6зсз698358 0.0 1013725
16:00−5зсз798089 0.1 1014950
19:00−6зсз6108191 0.1 1014384
22:00−8з5109287 0.0 1014139
16 мая, вс
вс1601:00−8з51091100 0.0 1014164
04:00−7з7129599 0.3 1013345
07:00−9з5109524 0.3 1014196
10:00−6з58865 0.0 1014389
13:00−5з578128 0.0 1014584
16:00−4зсз577657 0.0 1015751
19:00−4з478258 0.0 1015250
22:00−9з339495 0.0 101531
17 мая, пн
пн1701:00−12з339738 0.0 101519
04:00−14з239841 0.0 101522
07:00−11зюз359755 0.0 101684
10:00−7зюз469483 0.0 1016195
13:00−3з5688100 0.1 1016587
16:00−2зсз4582100 0.1 1017651
19:00−2зсз3585100 0.5 1017451
22:00−3зсз239497 0.8 101891
18 мая, вт
вт1801:00−11сз229966 0.9 101812
04:00−11сз229863 0.0 101914
07:00−9з239874 0.0 102044
10:00−6зсз239561 0.0 1020119
13:00−3зсз349043 0.0 1021310
16:00−2сз348552 0.0 1022504
19:00−2сз348631 0.0 1023326
22:00−7сз229429 0.0 102410
19 мая, ср
ср1901:00−11с229862 0.0 102411
04:00−13с229735 0.0 102512
07:00−10ссз229735 0.0 102625
10:00−5с24915 0.0 1026137
13:00−3с34865 0.0 1027287
16:00−3с34865 0.0 1027341
19:00−3с35895 0.0 1028227
22:00−8с339723 0.0 102917